Date_and_time,latitude,longitude,wind_speed,RelWindDirFrom,WindDirFrom,air_pressure,air_temperature,relative_humidity,Temp,platform_speed_wrt_ground,air_pressure_at_mean_sea_level,platform_orientation
2018-05-17 23:40,50.6304433333333,-96.9807666666667,15.2,17.3,38,993.32,7.3,94,9.32,0.0,1020.61,299.2
2018-05-17 23:50,50.630445,-96.9807683333333,14.7,16.6,40,993.35,7.5,91,9.32,0.0,1020.62,299.2
2018-05-18 00:00,50.630435,-96.9807416666667,12.9,15.0,42,993.51,7.7,90,9.31,0.0,1020.79,90.0
2018-05-18 00:10,50.6304283333333,-96.9807783333333,11.3,13.3,32,993.70,7.6,92,9.30,0.0,1020.99,90.0
2018-05-18 00:20,50.630445,-96.9807783333333,11.8,13.6,20,993.76,7.3,95,9.30,0.0,1021.04,90.0
2018-05-18 00:30,50.63044,-96.98078,11.7,13.7,18,993.95,7.3,93,9.31,0.0,1021.23,90.0
2018-05-18 00:40,50.63044,-96.9807766666667,11.4,13.6,26,994.05,7.4,92,9.31,0.0,1021.35,90.0
2018-05-18 00:50,50.6304383333333,-96.980775,11.2,13.1,30,994.16,7.2,92,9.30,0.0,1021.47,90.0
2018-05-18 01:00,50.6304383333333,-96.9807733333333,11.8,13.9,42,994.09,7.2,91,9.29,0.0,1021.39,293.6
2018-05-18 01:10,50.6304383333333,-96.9807716666667,12.7,14.4,45,993.92,7.4,88,9.29,0.0,1021.20,293.6
2018-05-18 01:20,50.6304383333333,-96.9807716666667,12.7,14.7,47,993.71,7.5,89,9.29,0.0,1020.99,293.6
2018-05-18 01:30,50.6304483333333,-96.9807783333333,13.6,15.2,45,993.46,7.4,89,9.29,0.0,1020.73,293.6
2018-05-18 01:40,50.6304366666667,-96.98077,13.3,15.0,48,993.73,7.5,89,9.29,0.0,1021.00,293.6
2018-05-18 01:50,50.630425,-96.9807616666667,13.1,14.8,49,993.83,7.6,89,9.29,0.0,1021.09,293.6
2018-05-18 02:00,50.630435,-96.9807633333333,11.8,14.2,46,994.20,7.4,91,9.27,0.0,1021.48,90.0
2018-05-18 02:10,50.6304366666667,-96.9807616666667,12.4,13.9,48,994.23,7.4,91,9.27,0.0,1021.53,90.0
2018-05-18 02:20,50.6304383333333,-96.98076,13.1,14.4,52,994.07,7.5,90,9.28,0.0,1021.36,90.0
2018-05-18 02:30,50.6304366666667,-96.9807633333333,13.4,15.5,51,994.09,7.5,90,9.27,0.0,1021.38,90.0
2018-05-18 02:40,50.630435,-96.980765,12.8,14.5,46,994.51,7.5,90,9.27,0.0,1021.82,90.0
2018-05-18 02:50,50.6304383333333,-96.9807633333333,12.7,14.0,45,994.65,7.6,90,9.27,0.0,1021.96,90.0
2018-05-18 03:00,50.6304233333333,-96.9807933333333,11.9,13.8,47,994.73,7.5,91,9.27,0.0,1022.03,253.2
2018-05-18 03:10,50.6304333333333,-96.9807733333333,11.9,13.1,44,994.75,7.4,92,9.27,0.0,1022.05,253.2
2018-05-18 03:20,50.630435,-96.9807633333333,12.2,13.7,48,994.59,7.5,91,9.26,0.0,1021.89,253.2
2018-05-18 03:30,50.6304333333333,-96.9807633333333,11.8,14.2,53,994.46,7.7,88,9.26,0.0,1021.74,253.2
2018-05-18 03:40,50.6304333333333,-96.9807633333333,11.3,12.6,50,994.48,7.7,88,9.26,0.0,1021.75,253.2
2018-05-18 03:50,50.630435,-96.9807633333333,11.7,13.2,51,994.46,7.7,86,9.25,0.0,1021.75,253.2
2018-05-18 04:00,50.630435,-96.980765,11.5,13.1,54,994.44,7.8,85,9.25,0.0,1021.72,167.4
2018-05-18 04:10,50.630435,-96.980765,10.9,12.3,54,994.34,7.7,87,9.26,0.0,1021.62,167.4
2018-05-18 04:20,50.630435,-96.9807666666667,10.4,11.9,55,994.32,7.4,89,9.26,0.0,1021.61,167.4
2018-05-18 04:30,50.63044,-96.9807366666667,10.9,12.4,57,994.32,7.4,88,9.25,0.0,1021.61,167.4
2018-05-18 04:40,50.6304416666667,-96.9807516666667,11.3,12.8,55,994.27,7.4,87,9.25,0.0,1021.56,167.4
2018-05-18 04:50,50.6304433333333,-96.9807583333333,11.9,13.4,58,994.11,7.5,87,9.25,0.0,1021.39,167.4
2018-05-18 05:00,50.6304366666667,-96.9807666666667,11.8,12.9,56,994.15,7.6,85,9.25,0.0,1021.43,0.0
2018-05-18 05:10,50.6304366666667,-96.9807666666667,10.8,12.1,53,994.50,7.6,86,9.23,0.0,1021.79,0.0
2018-05-18 05:20,50.630425,-96.9807366666667,10.9,12.3,55,994.32,7.6,86,9.23,0.0,1021.60,0.0
2018-05-18 05:30,50.630425,-96.98075,11.2,12.3,60,994.04,7.6,87,9.23,0.0,1021.31,0.0
2018-05-18 05:40,50.6304283333333,-96.9807566666667,10.6,12.1,58,994.01,7.5,88,9.23,0.0,1021.28,0.0
2018-05-18 05:50,50.6304166666667,-96.9807366666667,10.6,11.5,51,993.90,7.3,90,9.22,0.0,1021.17,0.0
2018-05-18 06:00,50.6304266666667,-96.9807616666667,9.4,10.9,47,993.92,7.0,94,9.22,0.0,1021.22,90.0
2018-05-18 06:10,50.6304366666667,-96.9807666666667,10.1,11.9,47,994.01,7.0,93,9.22,0.0,1021.32,90.0
2018-05-18 06:20,50.6304266666667,-96.9807366666667,10.6,12.1,41,993.93,6.8,95,9.20,0.0,1021.24,90.0
2018-05-18 06:30,50.6304366666667,-96.9807616666667,11.9,13.9,40,993.73,6.8,95,9.19,0.0,1021.03,90.0
2018-05-18 06:40,50.630435,-96.98076,12.1,14.0,42,993.68,7.0,92,9.19,0.0,1020.97,90.0
2018-05-18 06:50,50.6304366666667,-96.98076,12.3,14.0,48,993.64,7.3,89,9.18,0.0,1020.91,90.0
2018-05-18 07:00,50.630435,-96.9807633333333,11.0,12.9,48,993.75,7.4,88,9.18,0.0,1021.02,0.0
2018-05-18 07:10,50.6304433333333,-96.9807683333333,9.1,10.3,42,993.84,7.0,93,9.18,0.0,1021.13,0.0
2018-05-18 07:20,50.6304366666667,-96.9807583333333,9.7,10.9,41,993.82,6.8,94,9.17,0.0,1021.12,0.0
2018-05-18 07:30,50.6304366666667,-96.980765,9.8,11.0,41,993.86,7.0,92,9.16,0.0,1021.16,0.0
2018-05-18 07:40,50.6304333333333,-96.9807633333333,9.8,10.9,47,993.79,7.2,88,9.17,0.0,1021.09,0.0
2018-05-18 07:50,50.6304333333333,-96.980765,9.2,10.4,42,993.85,7.3,88,9.16,0.0,1021.15,0.0
2018-05-18 08:00,50.6304333333333,-96.980765,8.7,10.5,35,993.80,7.1,92,9.15,0.0,1021.12,142.0
2018-05-18 08:10,50.6304333333333,-96.980765,10.2,11.4,49,993.60,7.1,88,9.14,0.0,1020.92,142.0
2018-05-18 08:20,50.6304333333333,-96.9807666666667,10.3,11.2,51,993.46,7.2,88,9.13,0.0,1020.77,142.0
2018-05-18 08:30,50.6304333333333,-96.9807666666667,10.4,11.7,54,993.36,7.1,89,9.13,0.0,1020.67,142.0
2018-05-18 08:40,50.6304333333333,-96.9807666666667,10.2,11.3,52,993.26,7.0,91,9.12,0.0,1020.55,142.0
2018-05-18 08:50,50.6304333333333,-96.9807666666667,10.5,12.1,55,993.12,7.0,92,9.12,0.0,1020.40,142.0
2018-05-18 09:00,50.6304333333333,-96.980765,11.1,12.4,57,993.00,7.0,92,9.12,0.0,1020.30,347.4
2018-05-18 09:10,50.6304333333333,-96.980765,11.1,12.4,52,992.96,7.1,92,9.12,0.0,1020.27,347.4
2018-05-18 09:20,50.6304483333333,-96.9807666666667,11.6,13.0,52,992.77,7.2,92,9.11,0.0,1020.06,347.4
2018-05-18 09:30,50.6304366666667,-96.9807616666667,11.2,12.7,54,992.81,7.1,93,9.10,0.0,1020.09,347.4
2018-05-18 09:40,50.630445,-96.9807616666667,10.3,12.4,54,992.90,6.9,96,9.10,0.0,1020.19,347.4
2018-05-18 09:50,50.63043,-96.9807666666667,9.1,10.2,51,992.95,6.6,99,9.10,0.0,1020.27,347.4
2018-05-18 10:00,50.6304316666667,-96.980765,9.7,11.8,56,992.82,6.4,99,9.10,0.0,1020.14,142.0
2018-05-18 10:10,50.6304316666667,-96.98076,9.4,11.1,55,992.83,6.4,99,9.09,0.0,1020.14,142.0
2018-05-18 10:20,50.63043,-96.9807583333333,9.4,10.7,46,992.84,6.4,99,9.09,0.0,1020.16,142.0
2018-05-18 10:30,50.6304316666667,-96.9807583333333,9.3,10.5,44,992.87,6.4,99,9.09,0.0,1020.19,142.0
2018-05-18 10:40,50.6304333333333,-96.9807583333333,10.6,11.9,47,992.71,6.5,99,9.09,0.0,1020.03,142.0
2018-05-18 10:50,50.6304333333333,-96.9807583333333,9.4,11.6,47,992.88,6.5,100,9.08,0.0,1020.20,142.0
2018-05-18 11:00,50.630435,-96.98076,8.8,10.2,49,993.01,6.4,100,9.08,0.0,1020.34,48.3
2018-05-18 11:10,50.6304333333333,-96.98076,9.1,10.5,55,993.02,6.2,100,9.08,0.0,1020.35,48.3
2018-05-18 11:20,50.6304333333333,-96.98076,9.2,10.9,45,993.22,6.1,100,9.08,0.0,1020.56,48.3
2018-05-18 11:30,50.6304333333333,-96.98076,11.2,13.1,39,993.45,6.4,100,9.08,0.0,1020.79,48.3
2018-05-18 11:40,50.6304416666667,-96.98076,11.3,12.7,41,993.51,6.7,100,9.08,0.0,1020.86,48.3
2018-05-18 11:50,50.63043,-96.9807616666667,10.8,12.2,36,993.47,6.4,100,9.07,0.0,1020.84,48.3
2018-05-18 12:00,50.6304316666667,-96.9807583333333,11.7,14.0,33,993.40,6.2,100,9.07,0.0,1020.79,90.0
2018-05-18 12:10,50.6304333333333,-96.9807583333333,11.2,13.3,40,993.52,6.2,100,9.06,0.0,1020.90,90.0
2018-05-18 12:20,50.630435,-96.9807616666667,10.1,11.7,33,993.64,6.2,100,9.06,0.0,1021.02,90.0
2018-05-18 12:30,50.630435,-96.9807833333333,12.4,15.2,30,993.41,6.0,100,9.05,0.0,1020.79,90.0
2018-05-18 12:40,50.63044,-96.9807783333333,13.0,15.7,34,993.31,6.0,100,9.04,0.0,1020.69,90.0
2018-05-18 12:50,50.6304116666667,-96.9807683333333,12.8,14.7,31,993.32,6.0,101,9.03,0.0,1020.70,90.0
2018-05-18 13:00,50.6304266666667,-96.9807716666667,13.7,15.2,32,993.24,6.1,101,9.03,0.0,1020.64,192.6
2018-05-18 13:10,50.6304316666667,-96.980765,13.9,16.6,42,993.18,6.3,101,9.03,0.0,1020.56,192.6
2018-05-18 13:20,50.6304333333333,-96.980765,14.1,16.4,43,993.07,6.5,101,9.03,0.0,1020.43,192.6
2018-05-18 13:30,50.6304333333333,-96.980765,15.1,16.8,50,992.94,6.5,101,9.02,0.0,1020.28,192.6
2018-05-18 13:40,50.6304333333333,-96.980765,15.3,17.9,57,992.86,6.6,100,9.02,0.0,1020.20,192.6
2018-05-18 13:50,50.630435,-96.9807666666667,15.9,17.4,61,992.62,6.6,100,9.02,0.0,1019.97,192.6
2018-05-18 14:00,50.630435,-96.9807683333333,15.2,17.1,65,992.59,6.6,100,9.02,0.0,1019.94,270.0
2018-05-18 14:10,50.6304366666667,-96.9807666666667,15.3,18.0,67,992.58,6.6,100,9.02,0.0,1019.93,270.0
2018-05-18 14:20,50.6304366666667,-96.9807666666667,14.3,16.6,63,992.70,6.6,100,9.02,0.0,1020.06,270.0
2018-05-18 14:30,50.6304366666667,-96.9807633333333,11.8,14.4,45,992.92,6.5,100,9.01,0.0,1020.29,270.0
2018-05-18 14:40,50.6304266666667,-96.9807683333333,12.1,14.1,26,992.97,6.4,101,9.00,0.0,1020.34,270.0
2018-05-18 14:50,50.6304383333333,-96.9807533333333,12.6,14.5,21,993.02,6.2,101,9.01,0.0,1020.41,270.0
2018-05-18 15:00,50.6304383333333,-96.9807533333333,13.4,15.8,23,992.91,6.1,101,9.02,0.0,1020.28,14.5
2018-05-18 15:10,50.6304383333333,-96.9807516666667,13.6,16.8,21,992.76,6.3,101,9.01,0.0,1020.11,14.5
2018-05-18 15:20,50.6304366666667,-96.9807533333333,13.4,15.8,20,992.64,6.5,101,9.01,0.0,1019.99,14.5
2018-05-18 15:30,50.6304366666667,-96.9807533333333,14.9,17.9,16,992.57,6.4,101,9.02,0.0,1019.91,14.5
2018-05-18 15:40,50.6304366666667,-96.980755,14.9,17.1,20,992.59,6.4,101,9.00,0.0,1019.92,14.5
2018-05-18 15:50,50.6304366666667,-96.980755,14.8,16.9,20,992.58,6.4,101,8.99,0.0,1019.92,14.5
2018-05-18 16:00,50.6304366666667,-96.980755,13.8,16.3,28,992.61,6.3,101,8.98,0.0,1019.95,36.6
2018-05-18 16:10,50.630445,-96.980795,12.9,15.3,31,992.64,6.3,101,8.99,0.0,1019.99,36.6
2018-05-18 16:20,50.6304416666667,-96.980765,12.5,14.7,30,992.73,6.4,101,8.99,0.0,1020.08,36.6
2018-05-18 16:30,50.63044,-96.9807633333333,14.1,16.3,27,992.78,6.6,100,8.99,0.0,1020.12,36.6
2018-05-18 16:40,50.63044,-96.980765,14.7,16.5,25,992.79,6.7,100,9.00,0.0,1020.14,36.6
2018-05-18 16:50,50.63044,-96.980765,14.8,17.0,28,992.71,6.7,100,9.00,0.0,1020.06,36.6
2018-05-18 17:00,50.6304383333333,-96.9807633333333,14.8,17.0,30,992.72,6.8,100,8.99,0.0,1020.06,360.0
2018-05-18 17:10,50.6304366666667,-96.9807633333333,15.0,17.3,27,992.80,6.9,100,9.00,0.0,1020.12,360.0
2018-05-18 17:20,50.6304383333333,-96.980765,15.0,17.0,24,992.82,6.8,100,9.01,0.0,1020.15,360.0
2018-05-18 17:30,50.6304383333333,-96.9807633333333,14.7,16.6,25,992.73,6.8,100,9.01,0.0,1020.07,360.0
2018-05-18 17:40,50.6304383333333,-96.9807633333333,14.9,16.7,26,992.69,6.9,100,9.01,0.0,1020.02,360.0
2018-05-18 17:50,50.6304333333333,-96.98074,14.9,17.2,24,992.58,6.9,100,9.02,0.0,1019.91,360.0
2018-05-18 18:00,50.6304366666667,-96.98074,14.1,16.1,22,992.40,7.0,100,9.02,0.0,1019.72,167.4
2018-05-18 18:10,50.6304366666667,-96.9807516666667,14.7,17.2,29,992.19,7.0,100,9.02,0.0,1019.50,167.4
2018-05-18 18:20,50.630435,-96.9807566666667,14.1,16.2,28,992.16,7.1,100,9.03,0.0,1019.45,167.4
2018-05-18 18:30,50.630435,-96.9807566666667,15.0,17.1,17,992.12,7.1,100,9.02,0.0,1019.41,167.4
2018-05-18 18:40,50.630435,-96.9807583333333,15.0,17.5,19,992.12,7.1,100,9.03,0.0,1019.41,167.4
2018-05-18 18:50,50.630435,-96.9807583333333,15.1,17.9,16,992.14,7.1,100,9.02,0.0,1019.42,167.4
2018-05-18 19:00,50.630455,-96.9807616666667,16.4,18.9,20,992.13,7.1,100,9.02,0.0,1019.40,18.9
2018-05-18 19:10,50.6304416666667,-96.9807633333333,15.5,18.2,24,992.24,7.3,100,9.00,0.0,1019.51,18.9
2018-05-18 19:20,50.6304266666667,-96.9807566666667,14.5,16.3,25,992.37,7.3,99,9.00,0.0,1019.65,18.9
2018-05-18 19:30,50.6304283333333,-96.9807516666667,13.9,16.6,35,992.40,7.4,99,8.98,0.0,1019.67,18.9
2018-05-18 19:40,50.63043,-96.9807566666667,12.7,15.2,26,992.56,7.3,99,8.98,0.0,1019.83,18.9
2018-05-18 19:50,50.6304316666667,-96.9807566666667,12.6,14.4,25,992.59,7.2,99,8.99,0.0,1019.87,18.9
2018-05-18 20:00,50.6304316666667,-96.98076,12.6,14.9,24,992.65,7.2,99,9.00,0.0,1019.93,165.5
2018-05-18 20:10,50.6304333333333,-96.9807616666667,12.3,13.9,25,992.75,7.2,99,9.01,0.0,1020.03,165.5
2018-05-18 20:20,50.6304333333333,-96.9807616666667,12.4,14.5,26,992.74,7.3,99,9.01,0.0,1020.02,165.5
2018-05-18 20:30,50.6304333333333,-96.9807616666667,11.6,13.6,20,992.76,7.3,99,9.02,0.0,1020.03,165.5
2018-05-18 20:40,50.6304333333333,-96.9807616666667,11.7,13.1,28,992.78,7.4,99,9.02,0.0,1020.05,165.5
2018-05-18 20:50,50.630435,-96.9807616666667,11.2,13.0,30,992.70,7.6,99,9.02,0.0,1019.96,165.5
2018-05-18 21:00,50.6304416666667,-96.9807866666667,10.5,12.5,23,992.67,7.6,99,9.03,0.0,1019.91,280.0
2018-05-18 21:10,50.63044,-96.9807633333333,10.3,12.1,22,992.57,7.8,97,9.03,0.0,1019.81,280.0
2018-05-18 21:20,50.630445,-96.9807666666667,10.1,11.6,19,992.51,7.9,98,9.04,0.0,1019.73,280.0
2018-05-18 21:30,50.6304416666667,-96.9807633333333,10.5,12.0,16,992.50,8.2,92,9.05,0.0,1019.71,280.0
2018-05-18 21:40,50.6304433333333,-96.9807616666667,9.9,11.2,19,992.48,8.2,93,9.07,0.0,1019.70,280.0
2018-05-18 21:50,50.6304416666667,-96.9807583333333,8.5,9.7,17,992.50,7.9,98,9.07,0.0,1019.73,280.0
2018-05-18 22:00,50.6304416666667,-96.9807566666667,9.8,11.7,18,992.45,8.0,95,9.07,0.0,1019.68,360.0
2018-05-18 22:10,50.63044,-96.9807566666667,8.3,10.5,25,992.57,7.9,97,9.07,0.0,1019.79,360.0
2018-05-18 22:20,50.63044,-96.9807583333333,6.8,7.8,29,992.67,7.7,99,9.06,0.0,1019.91,360.0
2018-05-18 22:30,50.6304383333333,-96.9807583333333,5.8,7.0,39,992.81,7.6,99,9.07,0.0,1020.06,360.0
2018-05-18 22:40,50.6304383333333,-96.9807583333333,5.6,6.5,31,992.90,7.4,98,9.08,0.0,1020.14,360.0
2018-05-18 22:50,50.6304416666667,-96.98078,5.8,6.7,28,992.86,7.3,99,9.08,0.0,1020.11,360.0
2018-05-18 23:00,50.6304333333333,-96.9807816666667,5.5,6.5,30,992.89,7.2,98,9.09,0.0,1020.14,270.0
2018-05-18 23:10,50.630435,-96.9807633333333,5.9,6.9,24,992.88,7.2,96,9.11,0.0,1020.12,270.0
2018-05-18 23:20,50.6304266666667,-96.9807533333333,6.8,9.1,30,992.82,7.2,95,9.12,0.0,1020.04,270.0
2018-05-18 23:30,50.63043,-96.980755,5.9,7.8,34,992.77,7.5,94,9.13,0.0,1019.99,270.0
2018-05-18 23:40,50.630435,-96.9807583333333,5.6,6.9,15,992.76,7.5,93,9.14,0.0,1019.99,270.0
